"read_dt","SO2 (ppb)","flags","PMT voltage (V)","lamp voltage (V)","lamp intensity (Hz)","internal temp (C)","react chamber temp (C)","sample flow (l/min)","pres (mmHg)","SO2 bkg (ppb)","SO2 coefficient"
2015-06-27 00:00:00,1806E-3,5C000000,-0724,0823,12227,025.7,045.4,0.476,727.0,01.19,0.508
2015-06-27 00:01:00,1620E-3,5C000000,-0724,0823,12284,025.7,045.4,0.476,726.9,01.19,0.508
2015-06-27 00:02:00,1709E-3,5C000000,-0724,0823,12239,025.7,045.4,0.476,726.9,01.19,0.508
2015-06-27 00:03:00,1660E-3,5C000000,-0724,0823,12253,025.8,045.4,0.476,726.9,01.19,0.508
2015-06-27 00:04:00,1747E-3,5C000000,-0724,0824,12456,025.7,045.4,0.476,726.9,01.19,0.508
2015-06-27 00:05:00,1697E-3,5C000000,-0724,0824,12249,025.7,045.4,0.476,727.0,01.19,0.508
2015-06-27 00:06:00,1719E-3,5C000000,-0724,0823,12141,025.7,045.4,0.476,726.9,01.19,0.508
2015-06-27 00:07:00,1689E-3,5C000000,-0724,0825,12248,025.7,045.4,0.476,727.0,01.19,0.508
2015-06-27 00:08:00,1619E-3,5C000000,-0724,0823,12043,025.7,045.4,0.476,727.0,01.19,0.508
2015-06-27 00:09:00,1578E-3,5C000000,-0724,0824,12338,025.7,045.4,0.476,727.1,01.19,0.508
2015-06-27 00:10:00,1693E-3,5C000000,-0724,0824,12269,025.7,045.4,0.476,727.0,01.19,0.508
2015-06-27 00:11:00,1611E-3,5C000000,-0724,0824,12179,025.7,045.4,0.476,727.1,01.19,0.508
2015-06-27 00:12:00,1650E-3,5C000000,-0724,0823,12219,025.7,045.4,0.476,727.1,01.19,0.508
2015-06-27 00:13:00,1702E-3,5C000000,-0724,0824,12145,025.8,045.4,0.476,727.1,01.19,0.508
2015-06-27 00:14:00,1694E-3,5C000000,-0724,0823,12116,025.7,045.4,0.476,727.1,01.19,0.508
2015-06-27 00:15:00,1687E-3,5C000000,-0724,0823,12402,025.7,045.4,0.476,727.1,01.19,0.508
2015-06-27 00:16:00,1729E-3,5C000000,-0724,0824,12378,025.8,045.4,0.476,727.0,01.19,0.508
2015-06-27 00:17:00,1777E-3,5C000000,-0724,0823,12211,025.8,045.4,0.476,727.1,01.19,0.508
2015-06-27 00:18:00,1812E-3,5C000000,-0724,0823,12378,025.8,045.4,0.476,727.1,01.19,0.508
2015-06-27 00:19:00,1668E-3,5C000000,-0724,0824,12154,025.8,045.4,0.476,727.0,01.19,0.508
2015-06-27 00:20:00,1738E-3,5C000000,-0724,0823,12232,025.7,045.4,0.476,727.0,01.19,0.508
2015-06-27 00:21:00,1513E-3,5C000000,-0724,0824,12363,025.8,045.4,0.476,727.1,01.19,0.508
2015-06-27 00:22:00,1851E-3,5C000000,-0724,0824,12206,025.8,045.4,0.476,727.2,01.19,0.508
2015-06-27 00:23:00,1590E-3,5C000000,-0724,0823,12235,025.8,045.4,0.476,727.1,01.19,0.508
2015-06-27 00:24:00,1777E-3,5C000000,-0724,0824,12368,025.8,045.4,0.476,727.1,01.19,0.508
2015-06-27 00:25:00,1611E-3,5C000000,-0724,0823,12470,025.8,045.4,0.476,727.1,01.19,0.508
2015-06-27 00:26:00,1641E-3,5C000000,-0724,0823,12229,025.8,045.4,0.476,727.1,01.19,0.508
2015-06-27 00:27:00,1660E-3,5C000000,-0724,0823,12241,025.8,045.4,0.476,727.1,01.19,0.508
2015-06-27 00:28:00,1729E-3,5C000000,-0724,0823,12400,025.8,045.4,0.476,727.0,01.19,0.508
2015-06-27 00:29:00,1776E-3,5C000000,-0724,0823,12284,025.8,045.4,0.476,727.1,01.19,0.508
2015-06-27 00:30:00,1648E-3,5C000000,-0724,0823,12131,025.8,045.4,0.476,727.1,01.19,0.508
2015-06-27 00:31:00,1604E-3,5C000000,-0724,0824,12354,025.8,045.4,0.476,727.1,01.19,0.508
2015-06-27 00:32:00,1673E-3,5C000000,-0724,0823,12340,025.8,045.4,0.476,727.0,01.19,0.508
2015-06-27 00:33:00,1655E-3,5C000000,-0724,0823,12204,025.7,045.4,0.476,727.0,01.19,0.508
2015-06-27 00:34:00,1733E-3,5C000000,-0724,0823,12263,025.7,045.4,0.476,727.1,01.19,0.508
2015-06-27 00:35:00,1746E-3,5C000000,-0724,0822,12192,025.7,045.4,0.476,727.1,01.19,0.508
2015-06-27 00:36:00,1783E-3,5C000000,-0724,0823,12078,025.8,045.4,0.476,727.1,01.19,0.508
2015-06-27 00:37:00,1721E-3,5C000000,-0724,0823,12040,025.8,045.4,0.476,727.0,01.19,0.508
2015-06-27 00:38:00,1656E-3,5C000000,-0724,0824,12426,025.8,045.4,0.476,727.1,01.19,0.508
2015-06-27 00:39:00,1772E-3,5C000000,-0724,0823,12222,025.8,045.4,0.476,727.1,01.19,0.508
2015-06-27 00:40:00,1603E-3,5C000000,-0724,0823,12385,025.8,045.4,0.476,727.1,01.19,0.508
2015-06-27 00:41:00,1636E-3,5C000000,-0724,0822,12336,025.8,045.4,0.476,727.1,01.19,0.508
2015-06-27 00:42:00,1630E-3,5C000000,-0724,0824,12319,025.7,045.4,0.476,727.2,01.19,0.508
2015-06-27 00:43:00,1665E-3,5C000000,-0724,0824,12164,025.8,045.4,0.476,727.2,01.19,0.508
2015-06-27 00:44:00,1566E-3,5C000000,-0724,0824,12439,025.8,045.4,0.476,727.1,01.19,0.508
2015-06-27 00:45:00,1638E-3,5C000000,-0724,0823,12351,025.7,045.4,0.476,727.1,01.19,0.508
2015-06-27 00:46:00,1707E-3,5C000000,-0724,0823,12328,025.8,045.4,0.476,727.2,01.19,0.508
2015-06-27 00:47:00,1703E-3,5C000000,-0724,0823,12257,025.7,045.4,0.476,727.1,01.19,0.508
2015-06-27 00:48:00,1674E-3,5C000000,-0724,0824,12103,025.8,045.4,0.476,727.1,01.19,0.508
2015-06-27 00:49:00,1706E-3,5C000000,-0724,0824,12234,025.7,045.4,0.476,727.1,01.19,0.508
2015-06-27 00:50:00,1649E-3,5C000000,-0724,0823,12236,025.8,045.4,0.476,727.1,01.19,0.508
2015-06-27 00:51:00,1754E-3,5C000000,-0724,0823,12215,025.7,045.4,0.476,727.2,01.19,0.508
2015-06-27 00:52:00,1661E-3,5C000000,-0724,0823,12361,025.8,045.4,0.476,727.2,01.19,0.508
2015-06-27 00:53:00,1647E-3,5C000000,-0724,0823,12325,025.7,045.4,0.476,727.2,01.19,0.508
2015-06-27 00:54:00,1732E-3,5C000000,-0724,0823,12364,025.8,045.4,0.476,727.2,01.19,0.508
2015-06-27 00:55:00,1725E-3,5C000000,-0724,0823,12215,025.8,045.4,0.476,727.3,01.19,0.508
2015-06-27 00:56:00,1713E-3,5C000000,-0724,0823,12461,025.7,045.4,0.476,727.3,01.19,0.508
2015-06-27 00:57:00,1558E-3,5C000000,-0724,0823,12227,025.7,045.4,0.476,727.2,01.19,0.508
2015-06-27 00:58:00,1753E-3,5C000000,-0724,0823,12338,025.7,045.4,0.476,727.3,01.19,0.508
2015-06-27 00:59:00,1773E-3,5C000000,-0724,0824,12336,025.7,045.4,0.476,727.2,01.19,0.508
2015-06-27 01:00:00,1591E-3,5C000000,-0724,0824,12165,025.7,045.4,0.476,727.3,01.19,0.508
2015-06-27 01:01:00,1597E-3,5C000000,-0724,0823,12249,025.7,045.4,0.476,727.2,01.19,0.508
2015-06-27 01:02:00,1547E-3,5C000000,-0724,0822,12255,025.7,045.4,0.476,727.2,01.19,0.508
2015-06-27 01:03:00,1769E-3,5C000000,-0724,0824,12389,025.7,045.4,0.476,727.2,01.19,0.508
2015-06-27 01:04:00,1658E-3,5C000000,-0724,0823,12302,025.7,045.4,0.476,727.2,01.19,0.508
2015-06-27 01:05:00,1605E-3,5C000000,-0724,0823,12341,025.7,045.4,0.476,727.1,01.19,0.508
2015-06-27 01:06:00,1717E-3,5C000000,-0724,0823,12318,025.8,045.4,0.476,727.1,01.19,0.508
2015-06-27 01:07:00,1715E-3,5C000000,-0724,0824,12199,025.7,045.4,0.476,727.2,01.19,0.508
2015-06-27 01:08:00,1653E-3,5C000000,-0724,0823,12160,025.7,045.4,0.477,727.2,01.19,0.508
2015-06-27 01:09:00,1623E-3,5C000000,-0724,0824,12380,025.7,045.4,0.476,727.3,01.19,0.508
2015-06-27 01:10:00,1675E-3,5C000000,-0724,0822,12087,025.8,045.4,0.476,727.2,01.19,0.508
2015-06-27 01:11:00,1685E-3,5C000000,-0724,0823,12112,025.7,045.4,0.476,727.3,01.19,0.508
2015-06-27 01:12:00,1764E-3,5C000000,-0724,0823,12256,025.7,045.4,0.476,727.4,01.19,0.508
2015-06-27 01:13:00,1600E-3,5C000000,-0724,0824,12347,025.8,045.4,0.477,727.5,01.19,0.508
2015-06-27 01:14:00,1557E-3,5C000000,-0724,0824,12311,025.7,045.4,0.476,727.5,01.19,0.508
2015-06-27 01:15:00,1666E-3,5C000000,-0724,0824,12429,025.7,045.4,0.476,727.3,01.19,0.508
2015-06-27 01:16:00,1616E-3,5C000000,-0724,0823,12213,025.7,045.4,0.476,727.4,01.19,0.508
2015-06-27 01:17:00,1791E-3,5C000000,-0724,0823,12386,025.8,045.4,0.476,727.3,01.19,0.508
2015-06-27 01:18:00,1619E-3,5C000000,-0724,0824,12240,025.7,045.4,0.476,727.3,01.19,0.508
2015-06-27 01:19:00,1773E-3,5C000000,-0724,0824,12225,025.7,045.4,0.476,727.3,01.19,0.508
2015-06-27 01:20:00,1732E-3,5C000000,-0724,0823,12144,025.7,045.4,0.476,727.2,01.19,0.508
2015-06-27 01:21:00,1645E-3,5C000000,-0724,0824,12426,025.7,045.4,0.476,727.4,01.19,0.508
2015-06-27 01:22:00,1784E-3,5C000000,-0724,0824,12275,025.7,045.4,0.476,727.5,01.19,0.508
2015-06-27 01:23:00,1666E-3,5C000000,-0724,0824,12315,025.7,045.4,0.476,727.3,01.19,0.508
2015-06-27 01:24:00,1703E-3,5C000000,-0724,0823,12141,025.7,045.4,0.477,727.4,01.19,0.508
2015-06-27 01:25:00,1625E-3,5C000000,-0724,0823,12173,025.7,045.4,0.476,727.5,01.19,0.508
2015-06-27 01:26:00,1746E-3,5C000000,-0724,0823,12328,025.8,045.4,0.476,727.4,01.19,0.508
2015-06-27 01:27:00,1671E-3,5C000000,-0724,0823,12196,025.8,045.4,0.476,727.4,01.19,0.508
2015-06-27 01:28:00,1564E-3,5C000000,-0724,0824,12240,025.7,045.4,0.476,727.5,01.19,0.508
2015-06-27 01:29:00,1777E-3,5C000000,-0724,0823,12307,025.7,045.4,0.476,727.4,01.19,0.508
2015-06-27 01:30:00,1751E-3,5C000000,-0724,0823,12431,025.7,045.4,0.476,727.4,01.19,0.508
2015-06-27 01:31:00,1708E-3,5C000000,-0724,0825,12154,025.7,045.4,0.476,727.4,01.19,0.508
2015-06-27 01:32:00,1651E-3,5C000000,-0724,0824,12252,025.7,045.4,0.476,727.3,01.19,0.508
2015-06-27 01:33:00,1769E-3,5C000000,-0724,0824,12210,025.7,045.4,0.476,727.4,01.19,0.508
2015-06-27 01:34:00,1723E-3,5C000000,-0724,0824,12239,025.7,045.4,0.476,727.4,01.19,0.508
2015-06-27 01:35:00,1868E-3,5C000000,-0724,0823,12195,025.8,045.4,0.476,727.4,01.19,0.508
2015-06-27 01:36:00,1618E-3,5C000000,-0724,0824,12171,025.7,045.4,0.476,727.4,01.19,0.508
2015-06-27 01:37:00,1693E-3,5C000000,-0724,0824,12484,025.7,045.4,0.476,727.4,01.19,0.508
2015-06-27 01:38:00,1689E-3,5C000000,-0724,0823,12464,025.8,045.4,0.476,727.1,01.19,0.508
2015-06-27 01:39:00,1688E-3,5C000000,-0724,0824,12172,025.8,045.4,0.476,727.3,01.19,0.508
2015-06-27 01:40:00,1653E-3,5C000000,-0724,0824,12368,025.8,045.4,0.476,727.3,01.19,0.508
2015-06-27 01:41:00,1665E-3,5C000000,-0724,0823,12338,025.8,045.4,0.476,727.3,01.19,0.508
2015-06-27 01:42:00,1692E-3,5C000000,-0724,0824,12426,025.8,045.4,0.476,727.4,01.19,0.508
2015-06-27 01:43:00,1713E-3,5C000000,-0724,0823,12116,025.8,045.4,0.476,727.3,01.19,0.508
2015-06-27 01:44:00,1621E-3,5C000000,-0724,0824,12320,025.8,045.4,0.476,727.2,01.19,0.508
2015-06-27 01:45:00,1699E-3,5C000000,-0724,0823,12252,025.8,045.4,0.476,727.3,01.19,0.508
2015-06-27 01:46:00,1698E-3,5C000000,-0724,0823,12184,025.8,045.4,0.476,727.2,01.19,0.508
2015-06-27 01:47:00,1735E-3,5C000000,-0724,0824,12213,025.8,045.4,0.476,727.2,01.19,0.508
2015-06-27 01:48:00,1738E-3,5C000000,-0724,0823,12372,025.8,045.4,0.476,727.3,01.19,0.508
2015-06-27 01:49:00,1700E-3,5C000000,-0724,0823,12334,025.8,045.4,0.476,727.3,01.19,0.508
2015-06-27 01:50:00,1783E-3,5C000000,-0724,0823,12297,025.8,045.4,0.476,727.1,01.19,0.508
2015-06-27 01:51:00,1647E-3,5C000000,-0724,0824,12373,025.8,045.4,0.476,727.4,01.19,0.508
2015-06-27 01:52:00,1587E-3,5C000000,-0724,0823,12203,025.8,045.4,0.476,727.3,01.19,0.508
2015-06-27 01:53:00,1767E-3,5C000000,-0724,0824,12225,025.8,045.4,0.476,727.4,01.19,0.508
2015-06-27 01:54:00,1725E-3,5C000000,-0724,0823,12227,025.8,045.4,0.476,727.3,01.19,0.508
2015-06-27 01:55:00,1703E-3,5C000000,-0724,0823,12189,025.8,045.4,0.476,727.3,01.19,0.508
2015-06-27 01:56:00,1725E-3,5C000000,-0724,0823,12201,025.8,045.4,0.476,727.2,01.19,0.508
2015-06-27 01:57:00,1702E-3,5C000000,-0724,0824,12108,025.8,045.4,0.476,727.4,01.19,0.508
2015-06-27 01:58:00,1704E-3,5C000000,-0724,0823,12134,025.8,045.4,0.476,727.5,01.19,0.508
2015-06-27 01:59:00,1593E-3,5C000000,-0724,0823,12281,025.8,045.4,0.476,727.6,01.19,0.508
2015-06-27 02:00:00,1710E-3,5C000000,-0724,0823,12328,025.8,045.4,0.476,727.5,01.19,0.508
2015-06-27 02:01:00,1619E-3,5C000000,-0724,0824,12424,025.8,045.4,0.476,727.5,01.19,0.508
2015-06-27 02:02:00,1702E-3,5C000000,-0724,0823,12222,025.8,045.4,0.476,727.5,01.19,0.508
2015-06-27 02:03:00,1817E-3,5C000000,-0724,0823,12252,025.8,045.4,0.476,727.5,01.19,0.508
2015-06-27 02:04:00,1578E-3,5C000000,-0724,0825,12377,025.9,045.4,0.476,727.6,01.19,0.508
2015-06-27 02:05:00,1771E-3,5C000000,-0724,0824,12155,025.9,045.4,0.476,727.6,01.19,0.508
2015-06-27 02:06:00,1674E-3,5C000000,-0724,0824,12202,025.9,045.4,0.476,727.6,01.19,0.508
2015-06-27 02:07:00,1546E-3,5C000000,-0724,0824,12257,025.9,045.4,0.476,727.5,01.19,0.508
2015-06-27 02:08:00,1758E-3,5C000000,-0724,0823,12267,025.9,045.4,0.476,727.6,01.19,0.508
2015-06-27 02:09:00,1573E-3,5C000000,-0724,0824,12365,025.9,045.4,0.476,727.6,01.19,0.508
2015-06-27 02:10:00,1518E-3,5C000000,-0724,0824,12313,025.9,045.4,0.476,727.5,01.19,0.508
2015-06-27 02:11:00,1742E-3,5C000000,-0724,0824,12201,025.9,045.4,0.476,727.5,01.19,0.508
2015-06-27 02:12:00,1679E-3,5C000000,-0724,0824,12254,025.9,045.4,0.476,727.6,01.19,0.508
2015-06-27 02:13:00,1491E-3,5C000000,-0724,0824,12279,025.9,045.4,0.476,727.5,01.19,0.508
2015-06-27 02:14:00,1705E-3,5C000000,-0724,0823,12289,025.8,045.4,0.476,727.4,01.19,0.508
2015-06-27 02:15:00,1721E-3,5C000000,-0724,0824,12308,025.9,045.4,0.476,727.6,01.19,0.508
2015-06-27 02:16:00,1762E-3,5C000000,-0724,0823,12232,025.9,045.4,0.476,727.5,01.19,0.508
2015-06-27 02:17:00,1721E-3,5C000000,-0724,0824,12190,025.9,045.4,0.476,727.5,01.19,0.508
2015-06-27 02:18:00,1704E-3,5C000000,-0724,0824,12069,025.9,045.4,0.476,727.6,01.19,0.508
2015-06-27 02:19:00,1748E-3,5C000000,-0724,0824,12268,025.9,045.4,0.476,727.5,01.19,0.508
2015-06-27 02:20:00,1666E-3,5C000000,-0724,0823,12190,025.9,045.4,0.476,727.5,01.19,0.508
2015-06-27 02:21:00,1645E-3,5C000000,-0724,0823,12179,025.9,045.4,0.476,727.4,01.19,0.508
2015-06-27 02:22:00,1796E-3,5C000000,-0724,0823,12170,025.9,045.4,0.476,727.5,01.19,0.508
2015-06-27 02:23:00,1553E-3,5C000000,-0724,0824,12365,025.9,045.4,0.476,727.6,01.19,0.508
2015-06-27 02:24:00,1610E-3,5C000000,-0724,0824,12217,025.9,045.4,0.476,727.5,01.19,0.508
2015-06-27 02:25:00,1660E-3,5C000000,-0724,0824,12204,025.9,045.4,0.476,727.5,01.19,0.508
2015-06-27 02:26:00,1772E-3,5C000000,-0724,0824,12180,025.9,045.4,0.476,727.6,01.19,0.508
2015-06-27 02:27:00,1755E-3,5C000000,-0724,0824,12345,025.9,045.4,0.476,727.5,01.19,0.508
2015-06-27 02:28:00,1728E-3,5C000000,-0724,0824,12246,025.9,045.4,0.476,727.6,01.19,0.508
2015-06-27 02:29:00,1523E-3,5C000000,-0724,0823,12302,025.9,045.4,0.476,727.6,01.19,0.508
2015-06-27 02:30:00,1802E-3,5C000000,-0724,0823,12250,025.9,045.4,0.476,727.6,01.19,0.508
2015-06-27 02:31:00,1626E-3,5C000000,-0724,0824,12271,025.9,045.4,0.476,727.6,01.19,0.508
2015-06-27 02:32:00,1600E-3,5C000000,-0724,0823,12171,026.0,045.4,0.476,727.5,01.19,0.508
2015-06-27 02:33:00,1734E-3,5C000000,-0724,0824,12215,025.9,045.4,0.476,727.5,01.19,0.508
2015-06-27 02:34:00,1694E-3,5C000000,-0724,0823,12117,025.9,045.4,0.476,727.5,01.19,0.508
2015-06-27 02:35:00,1610E-3,5C000000,-0724,0823,12243,025.9,045.4,0.476,727.4,01.19,0.508
2015-06-27 02:36:00,1716E-3,5C000000,-0724,0823,12142,025.9,045.4,0.476,727.5,01.19,0.508
2015-06-27 02:37:00,1697E-3,5C000000,-0724,0823,12355,026.0,045.4,0.476,727.5,01.19,0.508
2015-06-27 02:38:00,1542E-3,5C000000,-0724,0824,12366,026.0,045.4,0.476,727.5,01.19,0.508
2015-06-27 02:39:00,1639E-3,5C000000,-0724,0824,12268,026.0,045.4,0.476,727.5,01.19,0.508
2015-06-27 02:40:00,1717E-3,5C000000,-0724,0824,12267,026.0,045.4,0.476,727.4,01.19,0.508
2015-06-27 02:41:00,1641E-3,5C000000,-0724,0824,12102,026.0,045.4,0.476,727.2,01.19,0.508
2015-06-27 02:42:00,1693E-3,5C000000,-0724,0824,12308,026.0,045.4,0.476,727.4,01.19,0.508
2015-06-27 02:43:00,1699E-3,5C000000,-0724,0824,12277,026.0,045.4,0.476,727.4,01.19,0.508
2015-06-27 02:44:00,1760E-3,5C000000,-0724,0823,12249,026.0,045.4,0.476,727.4,01.19,0.508
2015-06-27 02:45:00,1641E-3,5C000000,-0724,0824,12173,026.0,045.4,0.476,727.4,01.19,0.508
2015-06-27 02:46:00,1628E-3,5C000000,-0724,0823,12280,026.0,045.4,0.476,727.5,01.19,0.508
2015-06-27 02:47:00,1782E-3,5C000000,-0724,0823,12169,026.0,045.4,0.476,727.5,01.19,0.508
2015-06-27 02:48:00,1643E-3,5C000000,-0724,0824,12158,026.0,045.4,0.476,727.5,01.19,0.508
2015-06-27 02:49:00,1590E-3,5C000000,-0724,0823,12171,026.0,045.4,0.476,727.5,01.19,0.508
2015-06-27 02:50:00,1694E-3,5C000000,-0724,0824,12158,026.0,045.4,0.476,727.5,01.19,0.508
2015-06-27 02:51:00,1626E-3,5C000000,-0724,0824,12349,026.0,045.4,0.476,727.6,01.19,0.508
2015-06-27 02:52:00,1693E-3,5C000000,-0724,0823,12303,026.0,045.4,0.476,727.7,01.19,0.508
2015-06-27 02:53:00,1828E-3,5C000000,-0724,0823,12104,026.0,045.4,0.476,727.7,01.19,0.508
2015-06-27 02:54:00,1679E-3,5C000000,-0724,0823,12133,026.0,045.4,0.476,727.5,01.19,0.508
2015-06-27 02:55:00,1659E-3,5C000000,-0724,0823,12254,026.0,045.4,0.476,727.7,01.19,0.508
2015-06-27 02:56:00,1625E-3,5C000000,-0724,0823,12310,026.0,045.4,0.476,727.6,01.19,0.508
2015-06-27 02:57:00,1590E-3,5C000000,-0724,0823,12340,026.0,045.4,0.476,727.6,01.19,0.508
2015-06-27 02:58:00,1568E-3,5C000000,-0724,0823,12338,026.0,045.4,0.476,727.7,01.19,0.508
2015-06-27 02:59:00,1658E-3,5C000000,-0724,0824,12211,026.0,045.4,0.476,727.5,01.19,0.508
2015-06-27 03:00:00,1768E-3,5C000000,-0724,0823,12319,026.0,045.4,0.476,727.6,01.19,0.508
2015-06-27 03:01:00,1706E-3,5C000000,-0724,0824,12347,026.0,045.4,0.476,727.6,01.19,0.508
2015-06-27 03:02:00,1602E-3,5C000000,-0724,0823,12148,026.0,045.4,0.476,727.6,01.19,0.508
2015-06-27 03:03:00,1575E-3,5C000000,-0724,0824,12216,026.0,045.4,0.476,727.5,01.19,0.508
2015-06-27 03:04:00,1737E-3,5C000000,-0724,0823,12104,026.0,045.4,0.476,727.4,01.19,0.508
2015-06-27 03:05:00,1753E-3,5C000000,-0724,0823,12327,026.0,045.4,0.476,727.5,01.19,0.508
2015-06-27 03:06:00,1610E-3,5C000000,-0724,0823,12127,026.0,045.4,0.476,727.5,01.19,0.508
2015-06-27 03:07:00,1573E-3,5C000000,-0724,0823,12374,026.0,045.4,0.476,727.4,01.19,0.508
2015-06-27 03:08:00,1702E-3,5C000000,-0724,0823,12325,026.0,045.4,0.476,727.7,01.19,0.508
2015-06-27 03:09:00,1717E-3,5C000000,-0724,0824,12301,026.0,045.4,0.476,727.6,01.19,0.508
2015-06-27 03:10:00,1721E-3,5C000000,-0724,0824,12316,026.0,045.4,0.476,727.5,01.19,0.508
2015-06-27 03:11:00,1589E-3,5C000000,-0724,0824,12399,026.0,045.4,0.476,727.4,01.19,0.508
2015-06-27 03:12:00,1647E-3,5C000000,-0724,0823,12255,026.0,045.4,0.476,727.5,01.19,0.508
2015-06-27 03:13:00,1589E-3,5C000000,-0724,0823,12172,026.1,045.4,0.476,727.6,01.19,0.508
2015-06-27 03:14:00,1745E-3,5C000000,-0724,0823,12366,026.1,045.4,0.476,727.4,01.19,0.508
2015-06-27 03:15:00,1694E-3,5C000000,-0724,0823,12380,026.0,045.4,0.476,727.5,01.19,0.508
2015-06-27 03:16:00,1622E-3,5C000000,-0724,0823,12253,026.1,045.4,0.476,727.5,01.19,0.508
2015-06-27 03:17:00,1738E-3,5C000000,-0724,0823,12224,026.1,045.4,0.476,727.5,01.19,0.508
2015-06-27 03:18:00,1852E-3,5C000000,-0724,0823,12260,026.0,045.4,0.476,727.5,01.19,0.508
2015-06-27 03:19:00,1708E-3,5C000000,-0724,0823,12270,026.1,045.4,0.476,727.4,01.19,0.508
2015-06-27 03:20:00,1654E-3,5C000000,-0724,0824,12463,026.1,045.4,0.476,727.5,01.19,0.508
2015-06-27 03:21:00,1648E-3,5C000000,-0724,0823,12224,026.1,045.4,0.476,727.3,01.19,0.508
2015-06-27 03:22:00,1663E-3,5C000000,-0724,0823,12289,026.1,045.4,0.476,727.3,01.19,0.508
2015-06-27 03:23:00,1730E-3,5C000000,-0724,0823,12303,026.1,045.4,0.476,727.5,01.19,0.508
2015-06-27 03:24:00,1620E-3,5C000000,-0724,0825,12268,026.1,045.4,0.476,727.3,01.19,0.508
2015-06-27 03:25:00,1709E-3,5C000000,-0724,0822,12189,026.1,045.4,0.476,727.5,01.19,0.508
2015-06-27 03:26:00,1736E-3,5C000000,-0724,0823,12331,026.1,045.4,0.476,727.6,01.19,0.508
2015-06-27 03:27:00,1750E-3,5C000000,-0724,0823,12202,026.1,045.4,0.476,727.5,01.19,0.508
2015-06-27 03:28:00,1726E-3,5C000000,-0724,0822,12288,026.1,045.4,0.476,727.5,01.19,0.508
2015-06-27 03:29:00,1659E-3,5C000000,-0724,0824,12240,026.1,045.4,0.476,727.5,01.19,0.508
2015-06-27 03:30:00,1720E-3,5C000000,-0724,0822,12149,026.1,045.4,0.476,727.6,01.19,0.508
2015-06-27 03:31:00,1711E-3,5C000000,-0724,0823,12306,026.1,045.4,0.475,727.5,01.19,0.508
2015-06-27 03:32:00,1669E-3,5C000000,-0724,0823,12262,026.1,045.4,0.476,727.6,01.19,0.508
2015-06-27 03:33:00,1705E-3,5C000000,-0724,0824,12285,026.1,045.4,0.476,727.6,01.19,0.508
2015-06-27 03:34:00,1623E-3,5C000000,-0724,0823,12111,026.1,045.4,0.476,727.6,01.19,0.508
2015-06-27 03:35:00,1728E-3,5C000000,-0724,0824,12194,026.1,045.4,0.476,727.6,01.19,0.508
2015-06-27 03:36:00,1691E-3,5C000000,-0724,0823,12271,026.1,045.4,0.476,727.5,01.19,0.508
2015-06-27 03:37:00,1793E-3,5C000000,-0724,0823,12058,026.1,045.4,0.476,727.6,01.19,0.508
2015-06-27 03:38:00,1732E-3,5C000000,-0724,0823,12404,026.1,045.4,0.476,727.6,01.19,0.508
2015-06-27 03:39:00,1735E-3,5C000000,-0724,0824,12132,026.1,045.4,0.476,727.6,01.19,0.508
2015-06-27 03:40:00,1686E-3,5C000000,-0724,0824,12278,026.1,045.4,0.476,727.5,01.19,0.508
2015-06-27 03:41:00,1732E-3,5C000000,-0724,0824,12333,026.1,045.4,0.475,727.6,01.19,0.508
2015-06-27 03:42:00,1735E-3,5C000000,-0724,0823,12150,026.1,045.4,0.476,727.5,01.19,0.508
2015-06-27 03:43:00,1694E-3,5C000000,-0724,0824,12257,026.1,045.4,0.476,727.6,01.19,0.508
2015-06-27 03:44:00,1685E-3,5C000000,-0724,0823,12232,026.1,045.4,0.476,727.6,01.19,0.508
2015-06-27 03:45:00,1719E-3,5C000000,-0724,0823,12003,026.1,045.4,0.476,727.6,01.19,0.508
2015-06-27 03:46:00,1590E-3,5C000000,-0724,0823,12220,026.1,045.4,0.475,727.6,01.19,0.508
2015-06-27 03:47:00,1719E-3,5C000000,-0724,0824,12188,026.1,045.4,0.476,727.6,01.19,0.508
2015-06-27 03:48:00,1693E-3,5C000000,-0724,0824,12230,026.1,045.4,0.476,727.6,01.19,0.508
2015-06-27 03:49:00,1726E-3,5C000000,-0724,0823,12334,026.1,045.4,0.476,727.7,01.19,0.508
2015-06-27 03:50:00,1604E-3,5C000000,-0724,0824,12178,026.1,045.4,0.476,727.8,01.19,0.508
2015-06-27 03:51:00,1488E-3,5C000000,-0724,0823,12212,026.1,045.4,0.476,727.7,01.19,0.508
2015-06-27 03:52:00,1600E-3,5C000000,-0724,0823,12133,026.1,045.4,0.476,727.7,01.19,0.508
2015-06-27 03:53:00,1674E-3,5C000000,-0724,0824,12209,026.1,045.4,0.476,727.8,01.19,0.508
2015-06-27 03:54:00,1818E-3,5C000000,-0724,0824,12349,026.1,045.4,0.476,727.8,01.19,0.508
2015-06-27 03:55:00,1578E-3,5C000000,-0724,0824,12132,026.1,045.4,0.476,727.8,01.19,0.508
2015-06-27 03:56:00,1679E-3,5C000000,-0724,0824,12205,026.1,045.4,0.476,727.7,01.19,0.508
2015-06-27 03:57:00,1628E-3,5C000000,-0724,0824,12278,026.1,045.4,0.476,727.8,01.19,0.508
2015-06-27 03:58:00,1670E-3,5C000000,-0724,0824,12211,026.1,045.4,0.476,727.4,01.19,0.508
2015-06-27 03:59:00,1672E-3,5C000000,-0724,0823,12236,026.1,045.4,0.476,727.7,01.19,0.508
2015-06-27 04:00:00,1687E-3,5C000000,-0724,0823,12164,026.1,045.4,0.476,727.7,01.19,0.508
2015-06-27 04:01:00,1648E-3,5C000000,-0724,0823,12154,026.1,045.4,0.476,727.7,01.19,0.508
2015-06-27 04:02:00,1740E-3,5C000000,-0724,0823,12242,026.1,045.4,0.476,727.7,01.19,0.508
2015-06-27 04:03:00,1790E-3,5C000000,-0724,0823,12212,026.1,045.4,0.476,727.8,01.19,0.508
2015-06-27 04:04:00,1646E-3,5C000000,-0724,0823,12206,026.2,045.4,0.476,727.8,01.19,0.508
2015-06-27 04:05:00,1633E-3,5C000000,-0724,0823,12209,026.1,045.4,0.476,727.7,01.19,0.508
2015-06-27 04:06:00,1727E-3,5C000000,-0724,0824,12215,026.2,045.4,0.476,727.7,01.19,0.508
2015-06-27 04:07:00,1614E-3,5C000000,-0724,0823,12300,026.2,045.4,0.476,727.7,01.19,0.508
2015-06-27 04:08:00,1787E-3,5C000000,-0724,0823,12230,026.2,045.4,0.476,727.8,01.19,0.508
2015-06-27 04:09:00,1748E-3,5C000000,-0724,0823,12096,026.2,045.4,0.476,727.9,01.19,0.508
2015-06-27 04:10:00,1625E-3,5C000000,-0724,0823,12111,026.1,045.4,0.476,727.9,01.19,0.508
2015-06-27 04:11:00,1640E-3,5C000000,-0724,0823,12203,026.2,045.4,0.476,727.9,01.19,0.508
2015-06-27 04:12:00,1716E-3,5C000000,-0724,0823,12370,026.2,045.4,0.475,727.9,01.19,0.508
2015-06-27 04:13:00,1550E-3,5C000000,-0724,0823,12199,026.2,045.4,0.476,728.0,01.19,0.508
2015-06-27 04:14:00,1670E-3,5C000000,-0724,0824,12163,026.2,045.4,0.476,727.9,01.19,0.508
2015-06-27 04:15:00,1686E-3,5C000000,-0724,0823,12096,026.2,045.4,0.476,728.0,01.19,0.508
2015-06-27 04:16:00,1664E-3,5C000000,-0724,0823,12260,026.2,045.4,0.476,728.0,01.19,0.508
2015-06-27 04:17:00,1659E-3,5C000000,-0724,0824,12329,026.2,045.4,0.476,727.9,01.19,0.508
2015-06-27 04:18:00,1767E-3,5C000000,-0724,0823,12225,026.2,045.4,0.476,727.9,01.19,0.508
2015-06-27 04:19:00,1797E-3,5C000000,-0724,0823,12235,026.2,045.4,0.476,727.8,01.19,0.508
2015-06-27 04:20:00,1562E-3,5C000000,-0724,0823,12130,026.2,045.4,0.476,727.8,01.19,0.508